,,Stat6,,Stat2,,Stat8,,Stat9,,Stat10,,Wind1,,Wind1,
time,status,PA1M_AVG,status,PR1M_SUM,status,RH1M_AVG,status,SR1M_AVG,status,TA1M_AVG,status,W1dAve1m,status,W1sAve1m,
2007-01-04, 17:14:00,VALID,918.701,VALID,0,VALID,87.7242,VALID,422.619,VALID,22.1196,VALID,248,VALID,0.707667,
2007-01-04, 17:15:00,VALID,918.714,VALID,0,VALID,86.6688,VALID,420.921,VALID,22.1616,VALID,226,VALID,0.660528,
2007-01-04, 17:16:00,VALID,918.715,VALID,0,VALID,84.6494,VALID,412.227,VALID,22.0221,VALID,205,VALID,0.487695,
2007-01-04, 17:17:00,VALID,918.717,VALID,0,VALID,87.1278,VALID,408.678,VALID,22.0347,VALID,223,VALID,0.274858,
2007-01-04, 17:18:00,VALID,918.728,VALID,0,VALID,87.2384,VALID,404.891,VALID,22.1413,VALID,204,VALID,0.168164,
2007-01-04, 17:19:00,VALID,918.714,VALID,0,VALID,85.3704,VALID,404.432,VALID,22.1766,VALID,214,VALID,0.313021,
2007-01-04, 17:20:00,VALID,918.713,VALID,0,VALID,85.9579,VALID,401.665,VALID,22.2797,VALID,265,VALID,0.35883,
2007-01-04, 17:21:00,VALID,918.706,VALID,0,VALID,85.3209,VALID,399.983,VALID,22.3061,VALID,212,VALID,0.55625,
2007-01-04, 17:22:00,VALID,918.7,VALID,0,VALID,84.9635,VALID,398.099,VALID,22.2477,VALID,196,VALID,0.518229,
2007-01-04, 17:23:00,VALID,918.697,VALID,0,VALID,86.7768,VALID,395.704,VALID,22.3478,VALID,288,VALID,0.754925,
2007-01-04, 17:24:00,VALID,918.701,VALID,0,VALID,87.5373,VALID,397.267,VALID,22.46,VALID,270,VALID,0.823047,
2007-01-04, 17:25:00,VALID,918.713,VALID,0,VALID,86.0139,VALID,396.74,VALID,22.4896,VALID,225,VALID,0.777539,
2007-01-04, 17:26:00,VALID,918.714,VALID,0,VALID,84.5299,VALID,395.67,VALID,22.3698,VALID,169,VALID,0.314328,
2007-01-04, 17:27:00,VALID,918.71,VALID,0,VALID,84.8109,VALID,393.157,VALID,22.4344,VALID,281,VALID,0.717262,
2007-01-04, 17:28:00,VALID,918.69,VALID,0,VALID,84.4651,VALID,393.004,VALID,22.45,VALID,241,VALID,0.719866,
2007-01-04, 17:29:00,VALID,918.703,VALID,0,VALID,84.6138,VALID,398.642,VALID,22.4113,VALID,212,VALID,0.334339,
2007-01-04, 17:30:00,VALID,918.714,VALID,0,VALID,83.6474,VALID,403.04,VALID,22.3346,VALID,154,VALID,0.208519,
2007-01-04, 17:31:00,VALID,918.7,VALID,0,VALID,85.1352,VALID,401.597,VALID,22.4423,VALID,226,VALID,0.595618,
2007-01-04, 17:32:00,VALID,918.699,VALID,0,VALID,84.3608,VALID,399.712,VALID,22.455,VALID,221,VALID,0.388579,
2007-01-04, 17:33:00,VALID,918.694,VALID,0,VALID,84.5248,VALID,398.167,VALID,22.3833,VALID,192,VALID,0.381541,
2007-01-04, 17:34:00,VALID,918.699,VALID,0,VALID,83.4185,VALID,394.278,VALID,22.3064,VALID,134,VALID,0.799055,
2007-01-04, 17:35:00,VALID,918.702,VALID,0,VALID,84.3265,VALID,389.303,VALID,22.2283,VALID,130,VALID,0.271391,
2007-01-04, 17:36:00,VALID,918.698,VALID,0,VALID,85.9274,VALID,388.318,VALID,22.358,VALID,237,VALID,0.631925,
2007-01-04, 17:37:00,VALID,918.697,VALID,0,VALID,87.1481,VALID,388.487,VALID,22.4582,VALID,267,VALID,0.898624,
2007-01-04, 17:38:00,VALID,918.694,VALID,0,VALID,87.0452,VALID,392.07,VALID,22.5807,VALID,267,VALID,0.317454,
2007-01-04, 17:39:00,VALID,918.709,VALID,0,VALID,84.5185,VALID,394.108,VALID,22.5904,VALID,169,VALID,0.419829,
2007-01-04, 17:40:00,VALID,918.716,VALID,0,VALID,84.198,VALID,389.472,VALID,22.6221,VALID,118,VALID,0.343023,
2007-01-04, 17:41:00,VALID,918.717,VALID,0,VALID,83.0739,VALID,388.267,VALID,22.6967,VALID,163,VALID,0.502604,
2007-01-04, 17:42:00,VALID,918.729,VALID,0,VALID,83.9551,VALID,390.848,VALID,22.8286,VALID,352,VALID,0.502344,
2007-01-04, 17:43:00,VALID,918.689,VALID,0,VALID,80.0768,VALID,393.123,VALID,22.8388,VALID,276,VALID,1.70174,
2007-01-04, 17:44:00,VALID,918.715,VALID,0,VALID,82.3695,VALID,394.414,VALID,22.7258,VALID,168,VALID,0.848899,
2007-01-04, 17:45:00,VALID,918.71,VALID,0,VALID,83.5444,VALID,398.676,VALID,22.7384,VALID,99,VALID,0.40263,
2007-01-04, 17:46:00,VALID,918.707,VALID,0,VALID,83.6856,VALID,394.753,VALID,22.7675,VALID,93,VALID,0.442951,
2007-01-04, 17:47:00,VALID,918.707,VALID,0,VALID,83.6411,VALID,403.346,VALID,22.7548,VALID,138,VALID,0.515262,
2007-01-04, 17:48:00,VALID,918.713,VALID,0,VALID,83.2698,VALID,410.8,VALID,22.6767,VALID,194,VALID,0.75651,
2007-01-04, 17:49:00,VALID,918.709,VALID,0,VALID,82.5729,VALID,412.43,VALID,22.5868,VALID,155,VALID,0.910937,
2007-01-04, 17:50:00,VALID,918.692,VALID,0,VALID,82.1635,VALID,424.894,VALID,22.396,VALID,165,VALID,0.875,
2007-01-04, 17:51:00,VALID,918.691,VALID,0,VALID,82.447,VALID,441.298,VALID,22.2665,VALID,144,VALID,1.12214,
2007-01-04, 17:52:00,VALID,918.69,VALID,0,VALID,84.1052,VALID,450.264,VALID,22.2374,VALID,142,VALID,0.634896,
2007-01-04, 17:53:00,VALID,918.695,VALID,0,VALID,83.5279,VALID,461.709,VALID,22.2632,VALID,124,VALID,0.815234,
2007-01-04, 17:54:00,VALID,918.687,VALID,0,VALID,83.3384,VALID,472.356,VALID,22.3273,VALID,122,VALID,0.750908,
2007-01-04, 17:55:00,VALID,918.67,VALID,0,VALID,81.5696,VALID,472.135,VALID,22.26,VALID,144,VALID,1.30575,
2007-01-04, 17:56:00,VALID,918.658,VALID,0,VALID,80.2484,VALID,484.633,VALID,22.0692,VALID,149,VALID,1.27039,
2007-01-04, 17:57:00,VALID,918.675,VALID,0,VALID,83.3257,VALID,490.848,VALID,22.1144,VALID,202,VALID,0.588778,
2007-01-04, 17:58:00,VALID,918.667,VALID,0,VALID,84.1357,VALID,482.171,VALID,22.2732,VALID,206,VALID,0.343568,
2007-01-04, 17:59:00,VALID,918.655,VALID,0,VALID,80.5778,VALID,494.023,VALID,22.4054,VALID,312,VALID,0.775799,
2007-01-04, 18:00:00,VALID,918.668,VALID,0,VALID,82.2016,VALID,499.712,VALID,22.5607,VALID,19,VALID,0.30878,
2007-01-04, 18:01:00,VALID,918.671,VALID,0,VALID,82.2232,VALID,511.785,VALID,22.7701,VALID,47,VALID,0.386533,
2007-01-04, 18:02:00,VALID,918.665,VALID,0,VALID,82.6543,VALID,525.319,VALID,22.9317,VALID,234,VALID,0.620117,
2007-01-04, 18:03:00,VALID,918.674,VALID,0,VALID,81.3115,VALID,534.064,VALID,23.0442,VALID,128,VALID,0.728161,
2007-01-04, 18:04:00,VALID,918.673,VALID,0,VALID,80.0399,VALID,533.724,VALID,22.9375,VALID,136,VALID,0.925145,
2007-01-04, 18:05:00,VALID,918.655,VALID,0,VALID,78.074,VALID,536.781,VALID,22.7601,VALID,135,VALID,1.08594,
2007-01-04, 18:06:00,VALID,918.639,VALID,0,VALID,79.1815,VALID,532.909,VALID,22.7534,VALID,191,VALID,0.705842,
2007-01-04, 18:07:00,VALID,918.612,VALID,0,VALID,80.2497,VALID,520.225,VALID,22.8371,VALID,265,VALID,1.29688,
2007-01-04, 18:08:00,VALID,918.61,VALID,0,VALID,80.0233,VALID,534.879,VALID,22.976,VALID,255,VALID,1.64881,
2007-01-04, 18:09:00,VALID,918.614,VALID,0,VALID,76.3675,VALID,574.784,VALID,22.8665,VALID,222,VALID,1.50279,
2007-01-04, 18:10:00,VALID,918.59,VALID,0,VALID,74.5987,VALID,569.979,VALID,22.7478,VALID,217,VALID,0.800409,
2007-01-04, 18:11:00,VALID,918.56,VALID,0,VALID,78.1287,VALID,532.723,VALID,22.9184,VALID,259,VALID,0.68657,
2007-01-04, 18:12:00,VALID,918.538,VALID,0,VALID,77.3962,VALID,511.497,VALID,23.1672,VALID,261,VALID,0.924609,
2007-01-04, 18:13:00,VALID,918.54,VALID,0,VALID,76.7045,VALID,506.521,VALID,23.3062,VALID,274,VALID,0.950581,
2007-01-04, 18:14:00,VALID,918.53,VALID,0,VALID,77.5018,VALID,498.065,VALID,23.4865,VALID,275,VALID,1.01711,
2007-01-04, 18:15:00,VALID,918.522,VALID,0,VALID,77.2309,VALID,522.262,VALID,23.6616,VALID,240,VALID,0.487351,
2007-01-04, 18:16:00,VALID,918.526,VALID,0,VALID,74.8199,VALID,491.85,VALID,23.7288,VALID,263,VALID,0.567819,
2007-01-04, 18:17:00,VALID,918.517,VALID,0,VALID,74.792,VALID,546.902,VALID,23.9063,VALID,278,VALID,0.760938,
2007-01-04, 18:18:00,VALID,918.518,VALID,0,VALID,74.6063,VALID,536.577,VALID,24.1328,VALID,295,VALID,0.608232,
2007-01-04, 18:19:00,VALID,918.501,VALID,0,VALID,73.4364,VALID,561.081,VALID,24.3105,VALID,258,VALID,1.2818,
2007-01-04, 18:20:00,VALID,918.486,VALID,0,VALID,73.8052,VALID,575.871,VALID,24.285,VALID,274,VALID,1.67801,
2007-01-04, 18:21:00,VALID,918.476,VALID,0,VALID,73.7543,VALID,578.214,VALID,24.3299,VALID,275,VALID,1.73365,
2007-01-04, 18:22:00,VALID,918.487,VALID,0,VALID,73.6755,VALID,576.686,VALID,24.3367,VALID,266,VALID,1.23326,
2007-01-04, 18:23:00,VALID,918.454,VALID,0,VALID,75.1569,VALID,555.681,VALID,24.3299,VALID,279,VALID,1.38221,
2007-01-04, 18:24:00,VALID,918.448,VALID,0,VALID,75.1734,VALID,562.711,VALID,24.4131,VALID,271,VALID,1.74909,
2007-01-04, 18:25:00,VALID,918.442,VALID,0,VALID,74.1549,VALID,601.121,VALID,24.4163,VALID,278,VALID,1.76283,
2007-01-04, 18:26:00,VALID,918.425,VALID,0,VALID,74.2261,VALID,613.059,VALID,24.46,VALID,259,VALID,1.18477,
2007-01-04, 18:27:00,VALID,918.425,VALID,0,VALID,71.098,VALID,621.855,VALID,24.2784,VALID,241,VALID,1.60334,
2007-01-04, 18:28:00,VALID,918.413,VALID,0,VALID,73.0829,VALID,633.487,VALID,23.9876,VALID,259,VALID,1.19606,
2007-01-04, 18:29:00,VALID,918.396,VALID,0,VALID,72.1826,VALID,630.974,VALID,23.9353,VALID,273,VALID,2.31736,
2007-01-04, 18:30:00,VALID,918.415,VALID,0,VALID,72.3111,VALID,647.717,VALID,23.9711,VALID,196,VALID,0.771391,
2007-01-04, 18:31:00,VALID,918.417,VALID,0,VALID,73.2838,VALID,643.879,VALID,24.0778,VALID,51,VALID,0.452195,
2007-01-04, 18:32:00,VALID,918.422,VALID,0,VALID,74.0023,VALID,647.479,VALID,24.2516,VALID,238,VALID,1.05264,
2007-01-04, 18:33:00,VALID,918.429,VALID,0,VALID,69.6242,VALID,648.787,VALID,23.9582,VALID,191,VALID,0.740091,
2007-01-04, 18:34:00,VALID,918.422,VALID,0,VALID,72.2233,VALID,638.242,VALID,23.8874,VALID,249,VALID,1.34245,
2007-01-04, 18:35:00,VALID,918.415,VALID,0,VALID,73.1122,VALID,653.253,VALID,23.8833,VALID,275,VALID,1.45852,
2007-01-04, 18:36:00,VALID,918.377,VALID,0,VALID,74.8377,VALID,669.113,VALID,23.9834,VALID,278,VALID,1.59319,
2007-01-04, 18:37:00,VALID,918.371,VALID,0,VALID,74.3685,VALID,667.992,VALID,24.2032,VALID,271,VALID,1.27053,
2007-01-04, 18:38:00,VALID,918.358,VALID,0,VALID,76.2429,VALID,659.654,VALID,24.4358,VALID,235,VALID,0.903646,
2007-01-04, 18:39:00,VALID,918.354,VALID,0,VALID,73.0867,VALID,662.915,VALID,24.5072,VALID,301,VALID,0.520531,
2007-01-04, 18:40:00,VALID,918.346,VALID,0,VALID,73.7874,VALID,667.788,VALID,24.7111,VALID,272,VALID,0.663336,
2007-01-04, 18:41:00,VALID,918.316,VALID,0,VALID,72.9876,VALID,686.229,VALID,24.8346,VALID,276,VALID,1.8473,
2007-01-04, 18:42:00,VALID,918.286,VALID,0,VALID,71.9181,VALID,682.952,VALID,24.7896,VALID,272,VALID,2.35226,
2007-01-04, 18:43:00,VALID,918.299,VALID,0,VALID,71.5773,VALID,682.629,VALID,24.8869,VALID,261,VALID,1.50994,
2007-01-04, 18:44:00,VALID,918.282,VALID,0,VALID,69.717,VALID,655.036,VALID,24.9639,VALID,261,VALID,0.849805,
2007-01-04, 18:45:00,VALID,918.236,VALID,0,VALID,66.6715,VALID,654.815,VALID,24.9736,VALID,279,VALID,1.15625,
2007-01-04, 18:46:00,VALID,918.27,VALID,0,VALID,68.3831,VALID,665.292,VALID,24.6613,VALID,226,VALID,0.869141,
2007-01-04, 18:47:00,VALID,918.264,VALID,0,VALID,72.3085,VALID,682.85,VALID,24.6368,VALID,238,VALID,1.08683,
2007-01-04, 18:48:00,VALID,918.275,VALID,0,VALID,72.2704,VALID,713.721,VALID,24.8052,VALID,206,VALID,0.866655,
2007-01-04, 18:49:00,VALID,918.276,VALID,0,VALID,72.0682,VALID,729.785,VALID,24.8801,VALID,260,VALID,1.70666,
2007-01-04, 18:50:00,VALID,918.249,VALID,0,VALID,69.3495,VALID,748.651,VALID,24.8698,VALID,267,VALID,2.51399,
2007-01-04, 18:51:00,VALID,918.252,VALID,0,VALID,70.8436,VALID,745.526,VALID,24.7564,VALID,273,VALID,2.08036,
2007-01-04, 18:52:00,VALID,918.27,VALID,0,VALID,70.5232,VALID,730.04,VALID,24.7141,VALID,286,VALID,1.08321,
2007-01-04, 18:53:00,VALID,918.263,VALID,0,VALID,67.7269,VALID,739.566,VALID,24.7913,VALID,236,VALID,0.940589,
2007-01-04, 18:54:00,VALID,918.253,VALID,0,VALID,67.7486,VALID,754.017,VALID,24.7141,VALID,234,VALID,1.61991,
2007-01-04, 18:55:00,VALID,918.269,VALID,0,VALID,69.5123,VALID,727.781,VALID,24.4852,VALID,238,VALID,0.78176,
2007-01-04, 18:56:00,VALID,918.259,VALID,0,VALID,70.85,VALID,659.128,VALID,24.5625,VALID,249,VALID,0.54581,
2007-01-04, 18:57:00,VALID,918.236,VALID,0,VALID,70.2981,VALID,627.883,VALID,24.6879,VALID,191,VALID,0.808036,
2007-01-04, 18:58:00,VALID,918.255,VALID,0,VALID,69.909,VALID,599.763,VALID,24.7212,VALID,262,VALID,1.73256,
2007-01-04, 18:59:00,VALID,918.258,VALID,0,VALID,70.7432,VALID,539.566,VALID,24.7105,VALID,17,VALID,0.774581,
2007-01-04, 19:00:00,VALID,918.267,VALID,0,VALID,70.2574,VALID,513.229,VALID,24.7076,VALID,103,VALID,0.779154,
2007-01-04, 19:01:00,VALID,918.243,VALID,0,VALID,71.7045,VALID,506.674,VALID,24.7949,VALID,59,VALID,0.334821,
2007-01-04, 19:02:00,VALID,918.218,VALID,0,VALID,67.9774,VALID,492.308,VALID,24.7881,VALID,243,VALID,0.904297,
2007-01-04, 19:03:00,VALID,918.221,VALID,0,VALID,68.2788,VALID,492.054,VALID,24.62,VALID,246,VALID,0.536914,
2007-01-04, 19:04:00,VALID,918.192,VALID,0,VALID,68.3297,VALID,505.944,VALID,24.5102,VALID,96,VALID,1.04497,
2007-01-04, 19:07:00,VALID,918.181,VALID,0,VALID,70.0949,VALID,516.801,VALID,23.9127,VALID,176,VALID,1.34996,
2007-01-04, 19:08:00,VALID,918.182,VALID,0,VALID,72.938,VALID,538.751,VALID,23.7957,VALID,232,VALID,0.872461,
2007-01-04, 19:09:00,VALID,918.19,VALID,0,VALID,74.7424,VALID,540.585,VALID,23.9159,VALID,268,VALID,1.20446,
2007-01-04, 19:10:00,VALID,918.211,VALID,0,VALID,73.4364,VALID,527.73,VALID,24.0254,VALID,235,VALID,0.450267,
2007-01-04, 19:11:00,VALID,918.194,VALID,0,VALID,73.2635,VALID,535.1,VALID,24.1092,VALID,67,VALID,0.405342,
2007-01-04, 19:12:00,VALID,918.188,VALID,0,VALID,71.1755,VALID,548.09,VALID,24.269,VALID,355,VALID,0.810369,
2007-01-04, 19:13:00,VALID,918.192,VALID,0,VALID,71.7706,VALID,505.214,VALID,24.2858,VALID,264,VALID,1.4561,
2007-01-04, 19:14:00,VALID,918.166,VALID,0,VALID,69.4105,VALID,498.014,VALID,24.2819,VALID,262,VALID,1.01926,
2007-01-04, 19:15:00,VALID,918.155,VALID,0,VALID,70.8551,VALID,538.938,VALID,24.3257,VALID,170,VALID,0.468192,
2007-01-04, 19:16:00,VALID,918.13,VALID,0,VALID,71.7134,VALID,511.598,VALID,24.3418,VALID,233,VALID,0.911776,
2007-01-04, 19:17:00,VALID,918.117,VALID,0,VALID,73.7442,VALID,521.023,VALID,24.271,VALID,280,VALID,1.71416,
2007-01-04, 19:18:00,VALID,918.116,VALID,0,VALID,72.7091,VALID,573.918,VALID,24.3353,VALID,284,VALID,0.963986,
2007-01-04, 19:19:00,VALID,918.123,VALID,0,VALID,72.203,VALID,620.497,VALID,24.4811,VALID,304,VALID,0.454427,
2007-01-04, 19:20:00,VALID,918.087,VALID,0,VALID,72.9342,VALID,660.605,VALID,24.6782,VALID,320,VALID,1.7827,
2007-01-04, 19:21:00,VALID,918.059,VALID,0,VALID,67.7091,VALID,694.125,VALID,24.3654,VALID,226,VALID,2.22166,
2007-01-04, 19:22:00,VALID,918.032,VALID,0,VALID,66.1718,VALID,714.35,VALID,24.0548,VALID,142,VALID,0.954613,
2007-01-04, 19:23:00,VALID,918.041,VALID,0,VALID,68.4111,VALID,698.133,VALID,23.8836,VALID,153,VALID,1.12157,
2007-01-04, 19:24:00,VALID,918.04,VALID,0,VALID,71.3205,VALID,675.43,VALID,23.8228,VALID,203,VALID,1.11737,
2007-01-04, 19:25:00,VALID,918.048,VALID,0,VALID,74.3723,VALID,673.069,VALID,24.1162,VALID,283,VALID,0.58194,
2007-01-04, 19:26:00,VALID,918.023,VALID,0,VALID,69.778,VALID,664.256,VALID,24.41,VALID,203,VALID,0.566146,
2007-01-04, 19:27:00,VALID,918.011,VALID,0,VALID,66.6384,VALID,654.951,VALID,24.4106,VALID,189,VALID,1.02816,
2007-01-04, 19:28:00,VALID,917.997,VALID,0,VALID,68.0232,VALID,658.975,VALID,24.4115,VALID,274,VALID,2.30735,
2007-01-04, 19:29:00,VALID,917.994,VALID,0,VALID,71.1145,VALID,656.156,VALID,24.4668,VALID,271,VALID,2.5506,
2007-01-04, 19:30:00,VALID,918.008,VALID,0,VALID,69.3177,VALID,649.109,VALID,24.5537,VALID,274,VALID,2.05808,
2007-01-04, 19:31:00,VALID,918,VALID,0,VALID,69.9166,VALID,642.13,VALID,24.6471,VALID,260,VALID,1.31868,
2007-01-04, 19:32:00,VALID,918.001,VALID,0,VALID,67.7689,VALID,646.138,VALID,24.6319,VALID,341,VALID,0.872768,
2007-01-04, 19:33:00,VALID,917.988,VALID,0,VALID,67.7295,VALID,637.494,VALID,24.5466,VALID,150,VALID,1.30124,
2007-01-04, 19:34:00,VALID,917.953,VALID,0,VALID,66.3193,VALID,634.251,VALID,24.4147,VALID,184,VALID,0.943638,
2007-01-04, 19:35:00,VALID,917.96,VALID,0,VALID,69.024,VALID,631.279,VALID,24.5188,VALID,262,VALID,1.45684,
2007-01-04, 19:36:00,VALID,917.956,VALID,0,VALID,70.4863,VALID,622.959,VALID,24.4894,VALID,238,VALID,0.99184,
2007-01-04, 19:37:00,VALID,917.93,VALID,0,VALID,67.3518,VALID,608.168,VALID,24.3957,VALID,153,VALID,0.945845,
2007-01-04, 19:38:00,VALID,917.933,VALID,0,VALID,70.7635,VALID,606.385,VALID,24.4283,VALID,245,VALID,0.805618,
2007-01-04, 19:39:00,VALID,917.917,VALID,0,VALID,66.8533,VALID,601.257,VALID,24.3954,VALID,197,VALID,0.67702,
2007-01-04, 19:40:00,VALID,917.889,VALID,0,VALID,66.0802,VALID,596.435,VALID,24.3213,VALID,89,VALID,0.787109,
2007-01-04, 19:41:00,VALID,917.873,VALID,0,VALID,69.216,VALID,600.103,VALID,24.4218,VALID,331,VALID,1.15516,
2007-01-04, 19:42:00,VALID,917.869,VALID,0,VALID,66.2061,VALID,604.382,VALID,24.3644,VALID,156,VALID,0.810785,
2007-01-04, 19:43:00,VALID,917.844,VALID,0,VALID,68.5344,VALID,571.354,VALID,24.3124,VALID,262,VALID,1.29397,
2007-01-04, 19:44:00,VALID,917.824,VALID,0,VALID,68.5636,VALID,566.497,VALID,24.2936,VALID,130,VALID,1.32138,
2007-01-04, 19:45:00,VALID,917.78,VALID,0,VALID,70.981,VALID,523.893,VALID,24.2933,VALID,211,VALID,1.29545,
2007-01-04, 19:46:00,VALID,917.789,VALID,0,VALID,71.4527,VALID,521.974,VALID,24.4097,VALID,280,VALID,1.3293,
2007-01-04, 19:47:00,VALID,917.776,VALID,0,VALID,68.4632,VALID,584.973,VALID,24.5331,VALID,176,VALID,0.982329,
2007-01-04, 19:48:00,VALID,917.754,VALID,0,VALID,67.3645,VALID,579.573,VALID,24.3715,VALID,126,VALID,0.721475,
2007-01-04, 19:49:00,VALID,917.739,VALID,0,VALID,69.7869,VALID,569.265,VALID,24.365,VALID,225,VALID,1.05313,
2007-01-04, 19:50:00,VALID,917.721,VALID,0,VALID,71.8495,VALID,557.09,VALID,24.5657,VALID,274,VALID,1.64577,
2007-01-04, 19:51:01,VALID,917.704,VALID,0,VALID,70.054,VALID,564.867,VALID,24.5457,VALID,265,VALID,1.40525,
2007-01-04, 19:52:00,VALID,917.708,VALID,0,VALID,71.6384,VALID,576.397,VALID,24.5783,VALID,284,VALID,0.642987,
2007-01-04, 19:53:00,VALID,917.659,VALID,0,VALID,70.3045,VALID,568.348,VALID,24.7138,VALID,309,VALID,1.68732,
2007-01-04, 19:54:00,VALID,917.655,VALID,0,VALID,68.1771,VALID,565.903,VALID,24.6562,VALID,264,VALID,1.41641,
2007-01-04, 19:55:01,VALID,917.655,VALID,0,VALID,67.2005,VALID,560.945,VALID,24.5651,VALID,226,VALID,1.06002,
2007-01-04, 19:56:00,VALID,917.624,VALID,0,VALID,65.3554,VALID,563.849,VALID,24.3004,VALID,120,VALID,1.36699,
2007-01-04, 19:57:00,VALID,917.634,VALID,0,VALID,70.4164,VALID,565.411,VALID,24.3644,VALID,283,VALID,1.94271,
2007-01-04, 19:58:00,VALID,917.607,VALID,0,VALID,69.4957,VALID,573.001,VALID,24.5066,VALID,278,VALID,1.45617,
2007-01-04, 19:59:00,VALID,917.601,VALID,0,VALID,68.6527,VALID,576.109,VALID,24.6427,VALID,256,VALID,1.0067,
2007-01-04, 20:00:00,VALID,917.598,VALID,0,VALID,67.1598,VALID,579.963,VALID,24.62,VALID,140,VALID,0.820858,
2007-01-04, 20:01:00,VALID,917.581,VALID,0,VALID,68.7976,VALID,575.616,VALID,24.6914,VALID,213,VALID,0.425223,
2007-01-04, 20:02:00,VALID,917.547,VALID,0,VALID,69.1855,VALID,587.758,VALID,24.8915,VALID,252,VALID,1.027,
2007-01-04, 20:03:00,VALID,917.541,VALID,0,VALID,68.7188,VALID,604.025,VALID,24.9914,VALID,186,VALID,0.267671,
2007-01-04, 20:04:01,VALID,917.516,VALID,0,VALID,68.9604,VALID,609,VALID,25.1404,VALID,268,VALID,0.958899,
2007-01-04, 20:05:00,VALID,917.484,VALID,0,VALID,65.2066,VALID,622.059,VALID,25.088,VALID,292,VALID,1.01476,
2007-01-04, 20:06:00,VALID,917.479,VALID,0,VALID,69.3292,VALID,632.196,VALID,24.982,VALID,172,VALID,0.717507,
2007-01-04, 20:07:00,VALID,917.465,VALID,0,VALID,69.3609,VALID,639.43,VALID,24.9723,VALID,207,VALID,0.617388,
2007-01-04, 20:08:00,VALID,917.487,VALID,0,VALID,68.3411,VALID,644.796,VALID,24.9494,VALID,161,VALID,0.685417,
2007-01-04, 20:09:00,VALID,917.485,VALID,0,VALID,68.8116,VALID,648.107,VALID,24.9852,VALID,156,VALID,0.267361,
2007-01-04, 20:10:00,VALID,917.432,VALID,0,VALID,68.7785,VALID,645.543,VALID,25.12,VALID,281,VALID,1.66279,
2007-01-04, 20:11:01,VALID,917.41,VALID,0,VALID,70.0056,VALID,650.468,VALID,25.2726,VALID,261,VALID,0.851017,
2007-01-04, 20:12:00,VALID,917.394,VALID,0,VALID,67.6036,VALID,655.63,VALID,25.3528,VALID,152,VALID,1.03815,
2007-01-04, 20:13:00,VALID,917.361,VALID,0,VALID,66.4655,VALID,654.866,VALID,25.1889,VALID,235,VALID,1.45614,
2007-01-04, 20:14:00,VALID,917.344,VALID,0,VALID,67.4027,VALID,656.988,VALID,25.2015,VALID,238,VALID,1.01999,
2007-01-04, 20:15:00,VALID,917.313,VALID,0,VALID,67.8109,VALID,662.983,VALID,25.1139,VALID,294,VALID,1.19368,
2007-01-04, 20:16:00,VALID,917.296,VALID,0,VALID,66.6461,VALID,659.043,VALID,25.0137,VALID,227,VALID,1.31684,
2007-01-04, 20:17:00,VALID,917.268,VALID,0,VALID,67.98,VALID,652.692,VALID,24.684,VALID,194,VALID,0.700218,
2007-01-04, 20:18:00,VALID,917.229,VALID,0,VALID,69.703,VALID,646.766,VALID,24.7716,VALID,250,VALID,1.1235,
2007-01-04, 20:19:01,VALID,917.207,VALID,0,VALID,68.7862,VALID,643.59,VALID,24.7484,VALID,217,VALID,1.34728,
2007-01-04, 20:20:01,VALID,917.164,VALID,0,VALID,71.9919,VALID,647.971,VALID,24.655,VALID,267,VALID,1.79278,
2007-01-04, 20:21:00,VALID,917.14,VALID,0,VALID,74.9916,VALID,645.289,VALID,24.7939,VALID,277,VALID,1.88281,
2007-01-04, 20:22:00,VALID,917.141,VALID,0,VALID,71.7783,VALID,644.473,VALID,25.036,VALID,266,VALID,2.31977,
2007-01-04, 20:23:00,VALID,917.101,VALID,0,VALID,66.2455,VALID,650.009,VALID,24.9193,VALID,269,VALID,3.26258,
2007-01-04, 20:24:00,VALID,917.114,VALID,0,VALID,68.3716,VALID,662.66,VALID,24.6705,VALID,213,VALID,2.04524,
2007-01-04, 20:25:00,VALID,917.103,VALID,0,VALID,68.7798,VALID,656.309,VALID,24.5997,VALID,88,VALID,1.02401,
2007-01-04, 20:26:00,VALID,917.059,VALID,0,VALID,68.4517,VALID,661.2,VALID,24.7254,VALID,97,VALID,0.813045,
2007-01-04, 20:27:00,VALID,917.042,VALID,0,VALID,66.8521,VALID,653.558,VALID,24.7293,VALID,222,VALID,1.22293,
2007-01-04, 20:28:00,VALID,916.993,VALID,0,VALID,66.6295,VALID,658.975,VALID,24.6256,VALID,281,VALID,1.09133,
2007-01-04, 20:29:01,VALID,916.975,VALID,0,VALID,67.6608,VALID,660.401,VALID,24.6479,VALID,148,VALID,1.05398,
2007-01-04, 20:30:01,VALID,916.923,VALID,0,VALID,66.7872,VALID,657.617,VALID,24.5477,VALID,201,VALID,1.6888,
2007-01-04, 20:31:00,VALID,916.901,VALID,0,VALID,69.6712,VALID,663.815,VALID,24.6608,VALID,277,VALID,1.99893,
2007-01-04, 20:32:00,VALID,916.865,VALID,0,VALID,71.5519,VALID,669.69,VALID,24.8195,VALID,253,VALID,1.95217,
2007-01-04, 20:33:00,VALID,916.854,VALID,0,VALID,70.7737,VALID,661.522,VALID,24.9229,VALID,237,VALID,1.07927,
2007-01-04, 20:34:01,VALID,916.823,VALID,0,VALID,71.4133,VALID,649.177,VALID,25.036,VALID,277,VALID,2.33866,
2007-01-04, 20:35:00,VALID,916.827,VALID,0,VALID,69.778,VALID,648.804,VALID,25.1524,VALID,256,VALID,2.09952,
2007-01-04, 20:36:00,VALID,916.806,VALID,0,VALID,66.8966,VALID,641.043,VALID,25.0589,VALID,277,VALID,2.96708,
2007-01-04, 20:37:01,VALID,916.816,VALID,0,VALID,67.7892,VALID,622.959,VALID,24.9811,VALID,277,VALID,2.60404,
2007-01-04, 20:38:01,VALID,916.793,VALID,0,VALID,67.2094,VALID,613.976,VALID,24.8964,VALID,275,VALID,2.10175,
2007-01-04, 20:39:01,VALID,916.807,VALID,0,VALID,67.7587,VALID,612.125,VALID,24.8418,VALID,274,VALID,1.56194,
2007-01-04, 20:40:00,VALID,916.783,VALID,0,VALID,70.2676,VALID,610.631,VALID,24.8738,VALID,277,VALID,2.02763,
2007-01-04, 20:41:01,VALID,916.79,VALID,0,VALID,71.0433,VALID,605.129,VALID,25.0198,VALID,286,VALID,0.702035,
2007-01-04, 20:42:01,VALID,916.772,VALID,0,VALID,69.7691,VALID,596.333,VALID,25.056,VALID,262,VALID,1.41523,
2007-01-04, 20:43:00,VALID,916.744,VALID,0,VALID,69.0392,VALID,583.614,VALID,25.0208,VALID,283,VALID,0.834722,
2007-01-04, 20:44:00,VALID,916.738,VALID,0,VALID,67.156,VALID,590.016,VALID,25.0896,VALID,262,VALID,1.62462,
2007-01-04, 20:45:01,VALID,916.765,VALID,0,VALID,69.5695,VALID,653.915,VALID,25.0851,VALID,235,VALID,1.19722,
2007-01-04, 20:46:00,VALID,916.739,VALID,0,VALID,66.2074,VALID,670.777,VALID,25.1956,VALID,57,VALID,0.729403,
2007-01-04, 20:47:01,VALID,916.722,VALID,0,VALID,64.609,VALID,671.388,VALID,25.2668,VALID,65,VALID,0.724848,
2007-01-04, 20:48:00,VALID,916.697,VALID,0,VALID,64.6611,VALID,692.071,VALID,25.0379,VALID,230,VALID,1.27853,
2007-01-04, 20:49:01,VALID,916.681,VALID,0,VALID,68.5675,VALID,703.991,VALID,24.95,VALID,248,VALID,1.3471,
2007-01-04, 20:50:00,VALID,916.679,VALID,0,VALID,67.9253,VALID,679.318,VALID,24.9891,VALID,111,VALID,0.520952,